マクノート彗星

220P/McNaught (2009)

English version
Home page
Updated on March 17, 2010

---------------------------------------------------------------------

・ プロフィール

符号 220P/2009 H2
検出日 2009年4月28日、5月1日
検出光度 20.2等
検出者 T. H. Bressi (Spacewatch), G. Muler, J. M. Ruiz, and R. Naves (Lanzarate, Spain)

・ 写真集

・ 軌道要素

                    Epoch = 2010 Jan.  4.0 TT
     T = 2009 Dec. 15.43207 TT        Peri. = 180.75749
     e = 0.5026812                    Node  = 150.11807 2000.0
     q = 1.5486245 AU                 Incl. =   8.13271
       a =  3.1139471 AU   n = 0.17936480   P =   5.495 years

・ 光度変化

        m1 = 14.0 + 5 logΔ + 15.0 log r

---------------------------------------------------------------------

軌道要素は、CBET 1790に掲載されたものです。
光度グラフはComet for Windowsで作成したものです。

---------------------------------------------------------------------

Copyright(C) Seiichi Yoshida (comet@aerith.net). All rights reserved.